Location: *
(58.4167°N, 22.5000°E)
Time: 00:28:46
(UTC+00:00)

ARGOS Delta rocket - Pass Details

Date: 22 September 2019
Orbit: 634 x 839 km, 96.5° (Epoch: 19 October)

Event Time Altitude Azimuth Distance (km) Brightness Sun altitude
Exits shadow 19:48:31 51° 80° (E) 968 4.2 -24.0°
Maximum altitude 19:48:48 52° 68° (ENE) 959 4.3 -24.0°
Drops below altitude 10° 19:53:37 10° 353° (N) 2,255 7.1 -24.5°
Sets 19:55:53 0° 349° (N) 3,149 8.1 -24.7°
